Regional Weather Roundup
Issued by NWS Kansas City/Pleasant Hill, MO

Home | Current Version | Previous Version | Graphics & Text | Print | Product List | Glossary Off
Versions: 1 2 3 4 5 6 7 8 9 10 11 12 13 14 15 16 17 18 19 20 21 22 23 24 25 26 27 28 29 30 31 32 33 34 35 36 37 38 39 40 41 42 43 44 45 46 47 48 49 50

000
ASUS43 KEAX 232110
RWREAX

WEATHER ROUNDUP FOR EASTERN KANSAS AND NORTHWEST MISSOURI
NATIONAL WEATHER SERVICE KANSAS CITY/PLEASANT HILL MO
400 PM CDT SAT MAY 23 2015

KSZ040-057-103>105-MOZ028-029-037-043-232200-
...KANSAS CITY METROPOLITAN AREA...

CITY           SKY/WX    TMP DP  RH WIND       PRES   REMARKS
K.C. INTL      CLOUDY    67  60  78 SE16      30.13F
K.C. DOWNTOWN  CLOUDY    69  59  70 SE10      30.12F
LEES SUMMIT    CLOUDY    67  59  75 SE9       30.14F
OLATHE - IXD   CLOUDY    66  61  84 SE10      30.12F
OLATHE - OJC   CLOUDY    66  61  84 SE10      30.12F
LAWRENCE       CLOUDY    66  59  78 SE14      30.11F

$$

MOZ001>008-011>017-020>025-030>033-038>040-044>046-053-054-232200-
...NORTHERN AND CENTRAL MISSOURI...

CITY           SKY/WX    TMP DP  RH WIND       PRES   REMARKS
ST. JOSEPH     CLOUDY    67  59  75 SE9       30.12F
MOSBY          CLOUDY    68  59  73 SE8       30.13F
WARRENSBURG    CLOUDY    68  57  68 SE10      30.14F
WHITEMAN AFB   CLOUDY    70  59  67 SE9       30.14F
CLINTON        CLOUDY    70  61  73 SE13      30.15F
SEDALIA        CLOUDY    70  56  61 SE16      30.17F
WARSAW         NOT AVBL
CHILLICOTHE      N/A     71  58  63 SE10G17   30.16F
KIRKSVILLE     CLOUDY    74  54  49 S18G25    30.19F

$$

MOZ041-047>049-056>058-063>065-088>090-097-232200-
...EASTERN AND SOUTHERN MISSOURI...

CITY           SKY/WX    TMP DP  RH WIND       PRES   REMARKS
ST. LOUIS INTL PTSUNNY   78  50  37 S13G22    30.22F
SPIRIT OF STL  PTSUNNY   76  52  43 S6        30.20F
COLUMBIA       CLOUDY    73  55  53 SE13G20   30.19F
JEFFERSON CITY CLOUDY    74  53  48 SE13      30.18F
ROLLA          CLOUDY    70  55  59 SE9       30.19F
OSAGE BEACH    CLOUDY    70  54  56 SE13G21   30.19F
SPRINGFIELD    PTSUNNY   72  59  63 SE15      30.13F
BRANSON        PTSUNNY   72  63  73 E12       30.17F
JOPLIN         CLOUDY    73  64  73 SE10      30.08F
WEST PLAINS    MOSUNNY   70  55  59 E9G17     30.22F

$$

IAZ060-094-KSZ022-034>040-054-083-096-NEZ052-066-093-232200-
...KANSAS...SOUTHEAST NEBRASKA AND IOWA...

CITY           SKY/WX    TMP DP  RH WIND       PRES   REMARKS
TOPEKA         RAIN      65  61  87 SE15      30.10F FOG
MANHATTAN      RAIN      61  61 100 CALM      30.11F FOG
EMPORIA        TSTM      61  59  93 SE10      30.06F
CHANUTE        CLOUDY    65  62  90 E13       30.06F
WICHITA        TSTM      59  57  93 NE14      30.03F FOG
OMAHA          CLOUDY    65  57  75 S8        30.12F
LINCOLN        CLOUDY    63  58  83 S6        30.12F
FALLS CITY     CLOUDY    66  59  78 SE10      30.10F
LAMONI         PTSUNNY   72  56  57 SE10G20   30.14F
DES MOINES     CLOUDY    73  52  47 S15G22    30.14F

$$




USA.gov is the U.S. government's official web portal to all federal, state and local government web resources and services.